Location: Newark
(36.0797°N, 3.9744°E)
Time: 06:13:18
(UTC+00:00)

Vanguard 2 Rocket - Pass Details

Date: 16 December 2019
Orbit: 554 x 3326 km, 32.9° (Epoch: 22 January)

Event Time Altitude Azimuth Distance (km) Brightness Sun altitude
Rises 11:49:55 0° 192° (SSW) 6,984 12.5 30.6°
Reaches altitude 10° 11:56:36 10° 178° (S) 6,192 12.7 30.5°
Maximum altitude 12:09:13 21° 138° (SE) 5,357 11.6 30.2°
Drops below altitude 10° 12:20:56 10° 99° (E) 5,793 11.1 29.8°
Sets 12:26:39 0° 85° (E) 6,437 11.1 29.6°
